Etusivu
METAR-TAF:

METAR-TAF

Lentoasemat :

Omak Airport

Omak, Washington, Yhdysvallat

Leveyspiiri: 48-27-51N, Pituuspiiri: 119-31-05W, korkeus merenpinnasta: 397 m

Tämänhetkinen sää

Tämä raportti tehtiin 59 minuuttia sitten, kello 03.53 UTC
Tuuli 3 kn luoteesta
Lämpötila -3°C
Kosteus 80%
Ilmanpaine 1019 hPa
Näkyvyys: 16.1 km
selkeää

METAR: KOMK 220353Z AUTO 32003KT 10SM CLR M03/M06 A3009 RMK AO2 SLP208 T10281056

Aika: 20:52 (04:52 UTC)


TAF: puuttuu

Säähavainnot ja -ennusteet yli 4000 lentoasemalta (METAR- ja TAF-raportit).

Käytössä olevat sääasemat on merkitty karttaan keltaisilla ja punaisilla pisteillä.

Aseta hiiri pisteen päälle nähdäksesi sääaseman nimen.

Klikkaa sitten nähdäksesi säähavainnot ja -ennusteet.

Kartan vaihtaminen: klikkaa mustalla rastilla varustettuja vihreitä pisteitä, niin voit zoomata sisään; viivalla varustettua vihreää pistettä, niin voit zoomata ulos tai vihreitä nuolia, niin pääset viereisille kartoille.


METAR-TAF: